Time,TemperatureF,DewpointF,PressureIn,WindDirection,WindDirectionDegrees,WindSpeedMPH,WindSpeedGustMPH,Humidity,HourlyPrecipIn,Conditions,Clouds,dailyrainin,SoftwareType,DateUTC
2013-04-08 00:00:00,58.0,-99.9,-100.00,NE,34,0.0,-999.0,-999,-99.99,,,0.00,,2013-04-08 04:00:00,
2013-04-08 00:13:00,58.0,-99.9,-100.00,South,182,1.0,-999.0,-999,-99.99,,,0.00,,2013-04-08 04:13:00,
2013-04-08 00:23:00,58.0,-99.9,-100.00,South,182,1.0,-999.0,-999,-99.99,,,0.00,,2013-04-08 04:23:00,
2013-04-08 00:30:00,56.0,-99.9,-100.00,West,261,1.0,-999.0,-999,-99.99,,,0.00,,2013-04-08 04:30:00,
2013-04-08 00:45:00,58.0,-99.9,-100.00,NE,34,0.0,-999.0,-999,-99.99,,,0.00,,2013-04-08 04:45:00,
2013-04-08 00:53:00,58.0,-99.9,-100.00,NE,34,0.0,-999.0,-999,-99.99,,,0.00,,2013-04-08 04:53:00,
2013-04-08 01:12:00,56.0,-99.9,-100.00,West,261,1.0,-999.0,-999,-99.99,,,0.00,,2013-04-08 05:12:00,
2013-04-08 01:22:00,56.0,-99.9,-100.00,West,261,1.0,-999.0,-999,-99.99,,,0.00,,2013-04-08 05:22:00,
2013-04-08 01:53:00,54.0,-99.9,-100.00,ENE,60,1.0,-999.0,-999,-99.99,,,0.00,,2013-04-08 05:53:00,
2013-04-08 02:02:00,54.0,-99.9,-100.00,ENE,60,1.0,-999.0,-999,-99.99,,,0.00,,2013-04-08 06:02:00,
2013-04-08 02:12:00,54.0,-99.9,-100.00,ENE,78,1.0,-999.0,-999,-99.99,,,0.00,,2013-04-08 06:12:00,
2013-04-08 02:22:00,54.0,-99.9,-100.00,SE,128,1.0,-999.0,-999,-99.99,,,0.00,,2013-04-08 06:22:00,
2013-04-08 02:30:00,52.0,-99.9,-100.00,ESE,117,1.0,-999.0,-999,-99.99,,,0.00,,2013-04-08 06:30:00,
2013-04-08 02:32:00,54.0,-99.9,-100.00,SE,128,1.0,-999.0,-999,-99.99,,,0.00,,2013-04-08 06:32:00,
2013-04-08 02:43:00,53.0,-99.9,-100.00,ESE,123,0.0,-999.0,-999,-99.99,,,0.00,,2013-04-08 06:43:00,
2013-04-08 02:53:00,53.0,-99.9,-100.00,South,184,1.0,-999.0,-999,-99.99,,,0.00,,2013-04-08 06:53:00,
2013-04-08 03:03:00,53.0,-99.9,-100.00,South,184,1.0,-999.0,-999,-99.99,,,0.00,,2013-04-08 07:03:00,
2013-04-08 03:12:00,52.0,-99.9,-100.00,ESE,117,1.0,-999.0,-999,-99.99,,,0.00,,2013-04-08 07:12:00,
2013-04-08 03:22:00,52.0,-99.9,-100.00,ESE,117,1.0,-999.0,-999,-99.99,,,0.00,,2013-04-08 07:22:00,
2013-04-08 03:42:00,52.0,-99.9,-100.00,NW,319,1.0,-999.0,-999,-99.99,,,0.00,,2013-04-08 07:42:00,
2013-04-08 03:53:00,52.0,-99.9,-100.00,NW,325,1.0,-999.0,-999,-99.99,,,0.00,,2013-04-08 07:53:00,
2013-04-08 04:02:00,51.0,-99.9,-100.00,ESE,102,1.0,-999.0,-999,-99.99,,,0.00,,2013-04-08 08:02:00,
2013-04-08 04:12:00,51.0,-99.9,-100.00,ESE,102,1.0,-999.0,-999,-99.99,,,0.00,,2013-04-08 08:12:00,
2013-04-08 04:22:00,52.0,-99.9,-100.00,East,98,2.0,-999.0,-999,-99.99,,,0.00,,2013-04-08 08:22:00,
2013-04-08 04:33:00,52.0,-99.9,-100.00,SW,214,1.0,-999.0,-999,-99.99,,,0.00,,2013-04-08 08:33:00,
2013-04-08 04:43:00,51.0,-99.9,-100.00,WSW,251,2.0,-999.0,-999,-99.99,,,0.00,,2013-04-08 08:43:00,
2013-04-08 04:52:00,50.0,-99.9,-100.00,West,261,1.0,-999.0,-999,-99.99,,,0.00,,2013-04-08 08:52:00,
2013-04-08 05:03:00,50.0,-99.9,-100.00,West,261,1.0,-999.0,-999,-99.99,,,0.00,,2013-04-08 09:03:00,
2013-04-08 05:13:00,51.0,-99.9,-100.00,NW,307,1.0,-999.0,-999,-99.99,,,0.00,,2013-04-08 09:13:00,
2013-04-08 05:23:00,51.0,-99.9,-100.00,NW,320,2.0,-999.0,-999,-99.99,,,0.00,,2013-04-08 09:23:00,
2013-04-08 05:34:00,51.0,-99.9,-100.00,NW,320,2.0,-999.0,-999,-99.99,,,0.00,,2013-04-08 09:34:00,
2013-04-08 05:43:00,51.0,-99.9,-100.00,ENE,62,2.0,-999.0,-999,-99.99,,,0.00,,2013-04-08 09:43:00,
2013-04-08 05:53:00,51.0,-99.9,-100.00,ENE,78,2.0,-999.0,-999,-99.99,,,0.00,,2013-04-08 09:53:00,
2013-04-08 06:03:00,51.0,-99.9,-100.00,ENE,78,2.0,-999.0,-999,-99.99,,,0.00,,2013-04-08 10:03:00,
2013-04-08 06:13:00,51.0,-99.9,-100.00,West,281,1.0,-999.0,-999,-99.99,,,-99.99,,2013-04-08 10:13:00,
2013-04-08 06:23:00,50.0,-99.9,-100.00,WSW,246,1.0,-999.0,-999,-99.99,,,0.00,,2013-04-08 10:23:00,
2013-04-08 06:33:00,50.0,-99.9,-100.00,WSW,246,1.0,-999.0,-999,-99.99,,,0.00,,2013-04-08 10:33:00,
2013-04-08 06:43:00,50.0,-99.9,-100.00,SSW,194,1.0,-999.0,-999,-99.99,,,0.00,,2013-04-08 10:43:00,
2013-04-08 06:53:00,50.0,-99.9,-100.00,West,260,1.0,-999.0,-999,-99.99,,,0.00,,2013-04-08 10:53:00,
2013-04-08 07:03:00,50.0,-99.9,-100.00,West,260,1.0,-999.0,-999,-99.99,,,0.00,,2013-04-08 11:03:00,
2013-04-08 07:12:00,50.0,-99.9,-100.00,WSW,239,0.0,-999.0,-999,-99.99,,,-99.99,,2013-04-08 11:12:00,
2013-04-08 07:23:00,50.0,-99.9,-100.00,West,275,1.0,-999.0,-999,-99.99,,,0.00,,2013-04-08 11:23:00,
2013-04-08 07:33:00,50.0,-99.9,-100.00,West,275,1.0,-999.0,-999,-99.99,,,0.00,,2013-04-08 11:33:00,
2013-04-08 07:43:00,50.0,-99.9,-100.00,WSW,247,1.0,-999.0,-999,-99.99,,,0.00,,2013-04-08 11:43:00,
2013-04-08 07:53:00,50.0,-99.9,-100.00,SW,235,1.0,-999.0,-999,-99.99,,,0.00,,2013-04-08 11:53:00,
2013-04-08 08:04:00,50.0,-99.9,-100.00,SW,235,1.0,-999.0,-999,-99.99,,,0.00,,2013-04-08 12:04:00,
2013-04-08 08:12:00,49.0,-99.9,-100.00,WNW,300,1.0,-999.0,-999,-99.99,,,-99.99,,2013-04-08 12:12:00,
2013-04-08 08:23:00,49.0,-99.9,-100.00,SSW,206,1.0,-999.0,-999,-99.99,,,-99.99,,2013-04-08 12:23:00,
2013-04-08 08:34:00,49.0,-99.9,-100.00,SSW,206,1.0,-999.0,-999,-99.99,,,-99.99,,2013-04-08 12:34:00,
2013-04-08 08:43:00,49.0,-99.9,-100.00,SW,224,1.0,-999.0,-999,-99.99,,,0.00,,2013-04-08 12:43:00,
2013-04-08 08:53:00,49.0,-99.9,-100.00,WNW,285,3.0,-999.0,-999,-99.99,,,0.00,,2013-04-08 12:53:00,
2013-04-08 09:03:00,49.0,-99.9,-100.00,WNW,285,3.0,-999.0,-999,-99.99,,,0.00,,2013-04-08 13:03:00,
2013-04-08 09:12:00,50.0,-99.9,-100.00,SSE,167,1.0,-999.0,-999,-99.99,,,-99.99,,2013-04-08 13:12:00,
2013-04-08 09:23:00,51.0,-99.9,-100.00,ESE,122,0.0,-999.0,-999,-99.99,,,0.00,,2013-04-08 13:23:00,
2013-04-08 09:33:00,51.0,-99.9,-100.00,ESE,122,0.0,-999.0,-999,-99.99,,,0.00,,2013-04-08 13:33:00,
2013-04-08 09:43:00,53.0,-99.9,-100.00,SE,124,1.0,-999.0,-999,-99.99,,,0.00,,2013-04-08 13:43:00,
2013-04-08 09:53:00,55.0,-99.9,-100.00,North,2,1.0,-999.0,-999,-99.99,,,0.00,,2013-04-08 13:53:00,
2013-04-08 10:03:00,55.0,-99.9,-100.00,North,2,1.0,-999.0,-999,-99.99,,,0.00,,2013-04-08 14:03:00,
2013-04-08 10:12:00,58.0,-99.9,-100.00,West,267,1.0,-999.0,-999,-99.99,,,-99.99,,2013-04-08 14:12:00,
2013-04-08 10:22:00,61.0,-99.9,-100.00,SW,218,2.0,-999.0,-999,-99.99,,,0.00,,2013-04-08 14:22:00,
2013-04-08 10:33:00,62.0,-99.9,-100.00,SSW,192,4.0,-999.0,-999,-99.99,,,0.00,,2013-04-08 14:33:00,
2013-04-08 10:43:00,62.0,-99.9,-100.00,SSW,192,4.0,-999.0,-999,-99.99,,,0.00,,2013-04-08 14:43:00,
2013-04-08 10:53:00,63.0,-99.9,-100.00,South,189,5.0,-999.0,-999,-99.99,,,0.00,,2013-04-08 14:53:00,
2013-04-08 11:03:00,63.0,-99.9,-100.00,South,189,5.0,-999.0,-999,-99.99,,,0.00,,2013-04-08 15:03:00,
2013-04-08 11:12:00,64.0,-99.9,-100.00,SSW,204,6.0,-999.0,-999,-99.99,,,-99.99,,2013-04-08 15:12:00,
2013-04-08 11:22:00,65.0,-99.9,-100.00,SW,217,6.0,-999.0,-999,-99.99,,,-99.99,,2013-04-08 15:22:00,
2013-04-08 11:35:00,65.0,-99.9,-100.00,SW,217,6.0,-999.0,-999,-99.99,,,-99.99,,2013-04-08 15:35:00,
2013-04-08 11:43:00,67.0,-99.9,-100.00,SSW,205,5.0,-999.0,-999,-99.99,,,0.00,,2013-04-08 15:43:00,
2013-04-08 11:54:00,68.0,-99.9,-100.00,SSW,195,7.0,-999.0,-999,-99.99,,,0.00,,2013-04-08 15:54:00,
2013-04-08 12:04:00,68.0,-99.9,-100.00,SSW,195,7.0,-999.0,-999,-99.99,,,0.00,,2013-04-08 16:04:00,
2013-04-08 12:13:00,69.0,-99.9,-100.00,SSW,209,6.0,-999.0,-999,-99.99,,,-99.99,,2013-04-08 16:13:00,
2013-04-08 12:23:00,70.0,-99.9,-100.00,SSW,206,7.0,-999.0,-999,-99.99,,,0.00,,2013-04-08 16:23:00,
2013-04-08 12:33:00,70.0,-99.9,-100.00,SSW,206,7.0,-999.0,-999,-99.99,,,0.00,,2013-04-08 16:33:00,
2013-04-08 12:42:00,70.0,-99.9,-100.00,SSW,206,7.0,-999.0,-999,-99.99,,,0.00,,2013-04-08 16:42:00,
2013-04-08 12:54:00,71.0,-99.9,-100.00,SW,217,6.0,-999.0,-999,-99.99,,,0.00,,2013-04-08 16:54:00,
2013-04-08 13:03:00,71.0,-99.9,-100.00,SW,217,6.0,-999.0,-999,-99.99,,,0.00,,2013-04-08 17:03:00,
2013-04-08 13:12:00,71.0,-99.9,-100.00,SSW,195,9.0,-999.0,-999,-99.99,,,-99.99,,2013-04-08 17:12:00,
2013-04-08 13:23:00,72.0,-99.9,-100.00,SSW,199,9.0,-999.0,-999,-99.99,,,0.00,,2013-04-08 17:23:00,
2013-04-08 13:33:00,72.0,-99.9,-100.00,SSW,199,9.0,-999.0,-999,-99.99,,,0.00,,2013-04-08 17:33:00,
2013-04-08 13:45:00,72.0,-99.9,-100.00,SSW,201,9.0,-999.0,-999,-99.99,,,0.00,,2013-04-08 17:45:00,
2013-04-08 13:53:00,72.0,-99.9,-100.00,South,180,9.0,-999.0,-999,-99.99,,,0.00,,2013-04-08 17:53:00,
2013-04-08 14:02:00,72.0,-99.9,-100.00,South,180,9.0,-999.0,-999,-99.99,,,0.00,,2013-04-08 18:02:00,
2013-04-08 14:12:00,72.0,-99.9,-100.00,South,191,7.0,-999.0,-999,-99.99,,,-99.99,,2013-04-08 18:12:00,
2013-04-08 14:23:00,72.0,-99.9,-100.00,South,191,9.0,-999.0,-999,-99.99,,,0.00,,2013-04-08 18:23:00,
2013-04-08 14:32:00,72.0,-99.9,-100.00,South,191,9.0,-999.0,-999,-99.99,,,0.00,,2013-04-08 18:32:00,
2013-04-08 14:43:00,73.0,-99.9,-100.00,SSW,193,9.0,-999.0,-999,-99.99,,,0.00,,2013-04-08 18:43:00,
2013-04-08 14:53:00,73.0,-99.9,-100.00,South,187,8.0,-999.0,-999,-99.99,,,0.00,,2013-04-08 18:53:00,
2013-04-08 15:03:00,73.0,-99.9,-100.00,South,187,8.0,-999.0,-999,-99.99,,,0.00,,2013-04-08 19:03:00,
2013-04-08 15:13:00,73.0,-99.9,-100.00,SSW,200,8.0,-999.0,-999,-99.99,,,0.00,,2013-04-08 19:13:00,
2013-04-08 15:23:00,73.0,-99.9,-100.00,SSW,200,8.0,-999.0,-999,-99.99,,,0.00,,2013-04-08 19:23:00,
2013-04-08 15:34:00,73.0,-99.9,-100.00,SSW,200,8.0,-999.0,-999,-99.99,,,0.00,,2013-04-08 19:34:00,
2013-04-08 15:43:00,73.0,-99.9,-100.00,SSW,204,9.0,-999.0,-999,-99.99,,,0.00,,2013-04-08 19:43:00,
2013-04-08 15:53:00,73.0,-99.9,-100.00,SSW,201,7.0,-999.0,-999,-99.99,,,0.00,,2013-04-08 19:53:00,
2013-04-08 16:02:00,73.0,-99.9,-100.00,SSW,201,7.0,-999.0,-999,-99.99,,,0.00,,2013-04-08 20:02:00,
2013-04-08 16:12:00,74.0,-99.9,-100.00,SSW,210,7.0,-999.0,-999,-99.99,,,0.00,,2013-04-08 20:12:00,
2013-04-08 16:23:00,75.0,-99.9,-100.00,South,186,9.0,-999.0,-999,-99.99,,,0.00,,2013-04-08 20:23:00,
2013-04-08 16:33:00,75.0,-99.9,-100.00,South,186,9.0,-999.0,-999,-99.99,,,0.00,,2013-04-08 20:33:00,
2013-04-08 16:43:00,75.0,-99.9,-100.00,SSW,199,7.0,-999.0,-999,-99.99,,,0.00,,2013-04-08 20:43:00,
2013-04-08 16:53:00,75.0,-99.9,-100.00,SSW,204,7.0,-999.0,-999,-99.99,,,0.00,,2013-04-08 20:53:00,
2013-04-08 17:02:00,75.0,-99.9,-100.00,SSW,204,7.0,-999.0,-999,-99.99,,,0.00,,2013-04-08 21:02:00,
2013-04-08 17:12:00,76.0,-99.9,-100.00,SSW,196,10.0,-999.0,-999,-99.99,,,0.00,,2013-04-08 21:12:00,
2013-04-08 17:22:00,76.0,-99.9,-100.00,SSW,211,10.0,-999.0,-999,-99.99,,,0.00,,2013-04-08 21:22:00,
2013-04-08 17:33:00,76.0,-99.9,-100.00,SSW,211,10.0,-999.0,-999,-99.99,,,0.00,,2013-04-08 21:33:00,
2013-04-08 17:44:00,76.0,-99.9,-100.00,SSW,209,8.0,-999.0,-999,-99.99,,,0.00,,2013-04-08 21:44:00,
2013-04-08 17:53:00,76.0,-99.9,-100.00,SSW,209,9.0,-999.0,-999,-99.99,,,0.00,,2013-04-08 21:53:00,
2013-04-08 18:03:00,76.0,-99.9,-100.00,SSW,209,9.0,-999.0,-999,-99.99,,,0.00,,2013-04-08 22:03:00,
2013-04-08 18:14:00,76.0,-99.9,-100.00,SSW,211,8.0,-999.0,-999,-99.99,,,0.00,,2013-04-08 22:14:00,
2013-04-08 18:23:00,76.0,-99.9,-100.00,SW,222,8.0,-999.0,-999,-99.99,,,0.00,,2013-04-08 22:23:00,
2013-04-08 18:30:00,76.0,-99.9,-100.00,SSW,211,7.0,-999.0,-999,-99.99,,,0.00,,2013-04-08 22:30:00,
2013-04-08 18:32:00,76.0,-99.9,-100.00,SW,222,8.0,-999.0,-999,-99.99,,,0.00,,2013-04-08 22:32:00,
2013-04-08 18:44:00,76.0,-99.9,-100.00,SW,222,8.0,-999.0,-999,-99.99,,,0.00,,2013-04-08 22:44:00,
2013-04-08 19:03:00,76.0,-99.9,-100.00,SSW,210,6.0,-999.0,-999,-99.99,,,0.00,,2013-04-08 23:03:00,
2013-04-08 19:13:00,76.0,-99.9,-100.00,SSW,211,7.0,-999.0,-999,-99.99,,,0.00,,2013-04-08 23:13:00,
2013-04-08 19:22:00,76.0,-99.9,-100.00,SSW,211,7.0,-999.0,-999,-99.99,,,0.00,,2013-04-08 23:22:00,
2013-04-08 19:43:00,75.0,-99.9,-100.00,SSW,200,7.0,-999.0,-999,-99.99,,,0.00,,2013-04-08 23:43:00,
2013-04-08 19:52:00,75.0,-99.9,-100.00,SSW,194,7.0,-999.0,-999,-99.99,,,-99.99,,2013-04-08 23:52:00,
2013-04-08 20:02:00,75.0,-99.9,-100.00,SSW,194,7.0,-999.0,-999,-99.99,,,-99.99,,2013-04-09 00:02:00,
2013-04-08 20:13:00,75.0,-99.9,-100.00,SSW,194,7.0,-999.0,-999,-99.99,,,-99.99,,2013-04-09 00:13:00,
2013-04-08 20:23:00,75.0,-99.9,-100.00,South,191,6.0,-999.0,-999,-99.99,,,-99.99,,2013-04-09 00:23:00,
2013-04-08 20:32:00,75.0,-99.9,-100.00,South,191,6.0,-999.0,-999,-99.99,,,-99.99,,2013-04-09 00:32:00,
2013-04-08 20:42:00,75.0,-99.9,-100.00,South,191,6.0,-999.0,-999,-99.99,,,-99.99,,2013-04-09 00:42:00,
2013-04-08 20:52:00,74.0,-99.9,-100.00,South,187,7.0,-999.0,-999,-99.99,,,-99.99,,2013-04-09 00:52:00,
2013-04-08 21:03:00,74.0,-99.9,-100.00,South,187,7.0,-999.0,-999,-99.99,,,-99.99,,2013-04-09 01:03:00,
2013-04-08 21:12:00,73.0,-99.9,-100.00,South,182,6.0,-999.0,-999,-99.99,,,0.00,,2013-04-09 01:12:00,
2013-04-08 21:22:00,72.0,-99.9,-100.00,South,180,6.0,-999.0,-999,-99.99,,,-99.99,,2013-04-09 01:22:00,
2013-04-08 21:34:00,72.0,-99.9,-100.00,South,180,6.0,-999.0,-999,-99.99,,,-99.99,,2013-04-09 01:34:00,
2013-04-08 21:42:00,72.0,-99.9,-100.00,South,188,4.0,-999.0,-999,-99.99,,,0.00,,2013-04-09 01:42:00,
2013-04-08 21:53:00,72.0,-99.9,-100.00,South,187,4.0,-999.0,-999,-99.99,,,-99.99,,2013-04-09 01:53:00,
2013-04-08 22:03:00,72.0,-99.9,-100.00,South,187,4.0,-999.0,-999,-99.99,,,-99.99,,2013-04-09 02:03:00,
2013-04-08 22:13:00,71.0,-99.9,-100.00,SSW,199,4.0,-999.0,-999,-99.99,,,0.00,,2013-04-09 02:13:00,
2013-04-08 22:22:00,70.0,-99.9,-100.00,SSW,207,4.0,-999.0,-999,-99.99,,,-99.99,,2013-04-09 02:22:00,
2013-04-08 22:34:00,70.0,-99.9,-100.00,SSW,207,4.0,-999.0,-999,-99.99,,,-99.99,,2013-04-09 02:34:00,
2013-04-08 22:44:00,70.0,-99.9,-100.00,SW,214,4.0,-999.0,-999,-99.99,,,0.00,,2013-04-09 02:44:00,
2013-04-08 22:52:00,70.0,-99.9,-100.00,SW,215,3.0,-999.0,-999,-99.99,,,0.00,,2013-04-09 02:52:00,
2013-04-08 23:02:00,70.0,-99.9,-100.00,SW,215,3.0,-999.0,-999,-99.99,,,0.00,,2013-04-09 03:02:00,
2013-04-08 23:12:00,69.0,-99.9,-100.00,SW,227,2.0,-999.0,-999,-99.99,,,0.00,,2013-04-09 03:12:00,
2013-04-08 23:22:00,69.0,-99.9,-100.00,WSW,239,3.0,-999.0,-999,-99.99,,,-99.99,,2013-04-09 03:22:00,
2013-04-08 23:33:00,69.0,-99.9,-100.00,WSW,239,3.0,-999.0,-999,-99.99,,,-99.99,,2013-04-09 03:33:00,
2013-04-08 23:44:00,69.0,-99.9,-100.00,WSW,250,3.0,-999.0,-999,-99.99,,,0.00,,2013-04-09 03:44:00,
2013-04-08 23:53:00,68.0,-99.9,-100.00,WSW,246,3.0,-999.0,-999,-99.99,,,-99.99,,2013-04-09 03:53:00,